Temperature
7 7 7 7 7 7 7 7 7 7 7 7 7 7 7 7 7 7 6 6 6 6 6 5 5 5 5 5 4 4 4 3 3 3 3 3 2 3 3 2 2 2 2
6 6 6 6 6 6 6 6 6 6 6 7 6 6 6 6 6 6 6 6 6 5 5 5 5 5 4 4 4 4 3 3 3 2 2 2 2 2 2 2 2 2 2
6 6 6 6 6 6 6 6 6 6 6 6 6 6 6 6 6 6 5 5 5 5 5 5 4 4 4 4 3 3 3 3 2 2 2 2 2 2 2 2 2 2 2
5 5 5 5 5 5 5 5 5 5 5 5 5 5 5 5 5 5 5 5 4 4 4 4 4 4 3 3 3 3 2 2 2 1 1 1 1 1 1 1 1 1 1
4 5 5 4 4 4 5 5 5 5 5 5 5 5 5 4 4 4 4 4 4 4 4 4 3 3 3 2 2 2 2 1 1 1 1 1 1 1 0 0 0 0 1
4 4 4 4 4 4 4 4 4 4 4 4 4 4 4 4 4 4 4 3 3 3 3 3 3 2 2 2 2 1 1 1 1 1 0 0 0 0 -0 -0 -0 -0 -0
3 3 3 3 3 3 3 3 3 3 3 3 3 3 3 3 3 3 3 3 3 3 3 2 2 2 1 1 1 1 1 0 0 0 0 -0 -0 -0 -1 -1 -1 -1 -1
2 2 3 2 2 2 3 3 3 3 3 3 2 3 3 3 3 2 2 2 2 2 2 2 2 1 1 1 1 0 0 0 0 -0 -0 -1 -1 -1 -1 -1 -1 -2 -1
2 2 2 2 2 2 2 2 2 2 2 2 2 2 2 2 2 2 2 2 2 2 2 1 1 1 0 0 -0 -0 -0 -0 -0 -0 -1 -1 -1 -1 -1 -2 -2 -2 -2
1 1 1 1 1 1 1 1 1 1 1 1 1 1 1 1 1 1 1 1 1 1 1 1 0 0 -0 -0 -1 -1 -0 -0 -1 -1 -1 -1 -1 -1 -2 -2 -2 -2 -3
0 1 1 1 1 1 1 1 1 1 1 1 1 1 1 1 1 1 1 1 1 1 0 0 -0 -0 -1 -1 -1 -1 -1 -1 -1 -1 -1 -1 -2 -2 -2 -2 -2 -2 -3
-0 0 -0 0 0 0 0 0 0 0 1 1 0 0 0 0 0 0 0 0 0 0 -0 -0 -1 -1 -1 -1 -1 -1 -2 -2 -2 -2 -2 -2 -2 -2 -2 -2 -2 -3 -3
-1 -1 -1 -1 -0 -0 -0 -0 -0 0 0 -0 -0 -0 -0 -0 -0 -0 -0 -0 -0 -1 -1 -1 -1 -1 -1 -1 -2 -2 -2 -2 -2 -2 -2 -3 -3 -3 -3 -3 -3 -3 -3
-1 -1 -1 -1 -1 -1 -1 -1 -0 -0 -1 -1 -1 -1 -1 -1 -1 -1 -1 -1 -1 -1 -1 -1 -2 -2 -2 -2 -2 -2 -2 -2 -3 -3 -3 -3 -3 -3 -3 -3 -3 -3 -3
-1 -1 -1 -1 -1 -1 -1 -1 -1 -1 -1 -1 -1 -1 -1 -1 -1 -1 -2 -2 -2 -2 -2 -2 -2 -2 -2 -2 -2 -3 -3 -3 -3 -3 -3 -3 -3 -3 -3 -3 -4 -4 -4
-2 -2 -2 -2 -2 -2 -2 -2 -2 -2 -2 -2 -2 -1 -1 -1 -2 -2 -2 -2 -2 -2 -2 -2 -2 -3 -3 -3 -3 -3 -3 -3 -4 -4 -4 -4 -4 -4 -4 -4 -4 -4 -4
-2 -2 -2 -2 -2 -2 -2 -2 -3 -2 -2 -2 -2 -2 -2 -2 -2 -2 -2 -2 -2 -2 -2 -3 -3 -3 -3 -3 -4 -4 -4 -4 -4 -4 -4 -4 -4 -4 -4 -4 -4 -5 -5
-2 -3 -3 -2 -3 -3 -3 -3 -3 -3 -3 -3 -3 -3 -2 -3 -3 -3 -3 -3 -3 -3 -3 -3 -3 -3 -4 -4 -4 -4 -4 -4 -5 -5 -5 -5 -5 -5 -4 -5 -5 -5 -5
-3 -3 -3 -3 -3 -3 -3 -3 -3 -3 -3 -3 -3 -3 -3 -3 -3 -3 -3 -3 -3 -3 -3 -4 -4 -4 -4 -4 -4 -4 -5 -5 -5 -5 -5 -5 -5 -5 -5 -5 -5 -5 -5
-4 -4 -4 -4 -4 -4 -4 -4 -4 -4 -4 -4 -4 -4 -4 -4 -4 -4 -4 -4 -4 -4 -4 -4 -4 -4 -5 -5 -5 -5 -5 -5 -5 -5 -5 -5 -5 -5 -5 -5 -5 -5 -6
-4 -4 -4 -4 -4 -4 -4 -4 -4 -4 -4 -4 -4 -4 -4 -4 -4 -4 -4 -4 -4 -4 -4 -5 -5 -5 -5 -5 -5 -5 -5 -5 -5 -5 -5 -5 -5 -5 -6 -6 -6 -6 -6
-4 -4 -5 -5 -5 -5 -4 -4 -4 -4 -5 -5 -5 -5 -5 -5 -5 -4 -4 -5 -5 -5 -5 -5 -5 -5 -5 -5 -5 -5 -5 -6 -6 -6 -6 -6 -6 -6 -6 -6 -6 -6 -6
-5 -5 -5 -5 -5 -5 -5 -5 -5 -5 -5 -5 -5 -5 -5 -5 -5 -5 -5 -5 -5 -5 -5 -5 -5 -5 -6 -6 -6 -6 -6 -6 -6 -6 -6 -6 -6 -6 -6 -6 -6 -6 -6
-5 -5 -5 -5 -5 -5 -5 -5 -5 -5 -5 -5 -5 -5 -5 -5 -5 -5 -5 -5 -5 -5 -6 -5 -6 -6 -6 -6 -6 -6 -6 -6 -6 -6 -6 -6 -6 -6 -6 -6 -6 -6 -6
-5 -5 -5 -5 -6 -6 -5 -5 -5 -5 -5 -5 -5 -5 -5 -5 -5 -6 -6 -6 -6 -6 -6 -6 -6 -6 -6 -6 -6 -6 -6 -6 -6 -6 -6 -6 -6 -6 -6 -6 -6 -6 -6
-6 -6 -6 -6 -6 -6 -6 -6 -5 -5 -6 -6 -6 -6 -6 -6 -6 -6 -6 -6 -6 -6 -6 -6 -6 -6 -6 -6 -6 -6 -6 -6 -6 -6 -6 -6 -6 -6 -6 -6 -6 -6 -6
Wind_Speed
3 3 3 3 3 3 3 3 3 3 3 3 3 3 3 3 3 3 2 3 2 2 2 2 2 1 0 1 1 1 1 2 4 5 3 4 4 4 7 8 9 9 10
4 3 3 3 3 3 3 3 3 3 3 3 3 2 3 3 3 3 3 3 3 3 3 2 2 1 1 1 1 2 2 2 3 6 5 4 4 4 5 6 8 9 9
4 3 3 4 4 4 3 2 3 3 3 3 3 3 3 3 3 4 4 3 3 3 3 3 3 2 2 2 2 2 2 3 3 4 5 4 4 4 4 5 6 6 9
3 3 4 4 4 4 3 3 2 3 3 3 3 3 3 3 3 3 3 3 3 3 3 3 3 3 4 3 3 3 3 3 3 3 4 4 4 4 4 5 6 5 6
3 3 3 3 3 3 3 3 2 2 2 2 2 2 2 3 3 4 3 3 3 3 2 3 3 3 4 3 3 3 3 3 3 3 4 4 4 4 5 4 6 6 6
2 3 2 2 3 3 3 2 2 2 2 2 2 3 3 2 4 4 3 3 3 3 3 3 2 3 4 5 5 5 4 4 4 4 4 5 6 5 4 5 5 6 6
2 2 2 2 2 2 2 2 2 2 2 2 1 2 2 3 4 4 3 2 2 2 3 2 2 2 3 3 4 5 5 6 5 5 5 6 6 5 5 5 5 6 7
2 2 2 2 2 2 2 2 2 2 2 2 2 2 2 2 3 3 2 2 2 2 2 2 2 3 3 2 2 3 3 4 5 4 4 6 5 5 4 5 5 6 6
1 1 2 2 2 2 2 2 2 2 2 2 2 2 2 2 2 2 1 1 1 1 2 2 2 3 4 4 2 2 3 4 5 5 6 7 8 7 5 3 3 4 6
1 1 1 2 2 3 3 2 2 2 2 1 1 1 2 2 2 2 1 1 1 1 1 2 3 3 4 4 2 2 3 4 3 5 5 6 6 5 6 3 3 4 5
1 1 1 1 2 2 2 2 2 2 1 1 1 0 1 1 1 1 2 1 2 1 2 2 2 3 4 4 3 2 3 3 2 3 4 4 4 4 4 5 4 3 4
1 0 0 0 1 1 2 2 2 2 2 2 1 0 0 0 0 1 2 2 2 1 2 2 2 3 3 2 2 2 3 3 2 2 3 4 4 5 5 6 6 6 6
1 1 1 0 1 1 2 2 2 2 2 2 2 2 1 1 1 2 2 2 2 1 1 1 1 1 2 1 2 2 3 2 2 2 3 4 4 5 5 5 6 6 6
1 1 1 1 1 1 1 2 2 3 3 2 2 2 1 1 1 1 0 1 1 1 0 1 1 2 2 2 2 2 2 2 2 2 3 4 4 4 4 4 4 5 4
2 1 1 1 2 1 1 1 2 2 3 3 3 3 3 2 3 2 2 1 1 1 1 1 1 1 2 2 2 2 2 2 3 3 3 4 4 4 5 4 4 4 4
2 1 1 1 1 1 1 1 1 0 0 1 2 2 2 3 3 2 2 2 0 2 2 1 0 1 1 1 2 2 2 3 3 3 3 4 4 5 5 5 4 4 5
2 1 1 1 1 1 1 2 1 2 2 2 2 1 1 2 2 2 1 0 1 2 1 1 0 0 1 1 1 2 2 3 3 3 3 4 4 4 5 5 5 5 5
1 1 1 1 1 1 1 2 2 1 1 1 1 1 0 1 1 2 2 1 1 1 1 1 0 0 1 1 1 2 2 2 3 3 3 4 4 4 4 4 4 5 5
1 1 1 1 1 1 1 1 2 1 1 0 1 1 1 2 2 1 1 1 1 1 0 0 0 1 1 1 1 1 2 2 3 3 3 3 3 4 4 4 4 6 5
1 1 1 1 1 1 1 2 2 1 1 1 0 0 0 1 1 1 1 1 1 1 0 0 0 1 1 1 1 1 2 2 3 3 3 3 3 3 4 5 4 5 5
1 1 1 1 1 1 1 1 1 1 1 1 1 1 0 0 0 0 0 0 1 1 0 0 1 1 1 1 1 1 2 2 2 2 3 3 3 3 4 4 4 4 4
1 1 1 1 1 1 1 1 1 1 1 1 0 0 1 1 1 0 0 0 0 0 1 1 1 1 1 1 1 1 2 2 2 2 3 3 3 3 3 4 4 4 4
2 1 1 1 1 1 1 1 1 1 1 0 0 0 0 0 0 0 0 0 0 0 0 0 1 1 2 2 2 2 2 2 3 3 3 3 3 3 3 3 4 4 4
2 2 2 1 1 1 1 1 1 1 1 0 0 0 0 0 0 0 0 0 0 0 0 1 1 2 2 2 3 3 4 4 4 4 3 3 3 3 3 3 4 4 4
2 2 2 1 1 1 1 1 1 1 0 0 0 0 0 0 0 0 0 0 0 0 1 1 1 1 2 3 3 4 4 5 4 4 3 2 2 3 3 3 3 3 3
1 1 1 1 1 1 1 1 1 1 1 1 1 1 1 0 0 0 0 0 0 1 1 1 1 2 3 3 3 4 4 4 4 4 3 2 2 2 3 3 3 3 3
Wind_Direction
185 181 169 173 161 160 163 171 171 166 167 165 161 157 162 163 155 162 176 170 170 187 189 192 221 221 221 282 283 268 262 246 273 293 292 298 302 308 321 322 320 319 316
188 183 180 167 162 164 163 167 163 165 166 162 155 169 177 175 167 171 185 185 183 194 203 202 232 232 225 260 272 270 263 255 259 288 299 301 303 305 312 313 318 318 314
177 175 180 168 172 169 166 172 165 166 170 167 163 178 184 188 188 190 191 194 199 204 202 206 223 219 241 257 260 264 267 281 273 281 296 297 299 309 314 308 307 311 315
178 175 179 180 180 176 170 181 179 177 181 187 186 190 187 191 197 196 193 196 203 212 209 213 220 224 232 244 255 263 272 284 288 290 298 305 307 309 312 311 313 312 311
179 189 193 184 172 166 166 183 184 184 195 195 184 188 186 199 199 191 196 199 202 215 220 221 229 248 260 263 270 267 268 274 286 295 301 304 308 313 309 306 307 313 303
185 205 191 171 165 168 174 178 169 182 192 186 194 190 193 216 206 205 199 194 203 212 228 238 241 250 268 277 280 281 276 272 277 281 289 291 292 292 298 303 306 315 308
190 197 180 164 164 173 172 172 177 190 186 188 211 195 198 214 210 213 218 192 200 215 227 234 257 270 279 267 282 295 294 289 280 272 278 285 285 288 294 297 297 296 290
191 185 173 172 183 183 170 184 189 182 190 198 213 197 198 219 214 210 205 179 201 217 224 226 242 259 264 268 273 288 294 294 293 285 274 282 283 284 278 285 287 296 292
186 183 194 192 192 186 187 204 199 183 197 206 207 187 184 223 216 208 213 178 189 225 235 227 234 247 272 287 287 289 303 307 317 312 310 312 311 312 319 319 312 314 306
202 220 219 206 196 197 197 205 201 190 201 206 199 187 192 216 214 217 240 199 196 242 255 247 256 263 278 292 282 272 287 298 314 323 325 322 325 321 321 310 286 297 301
216 219 225 221 209 197 183 195 187 174 166 177 163 201 208 196 194 235 275 253 212 230 253 266 267 274 285 293 303 278 284 310 313 311 315 320 330 333 329 325 309 280 286
152 185 235 202 204 193 163 177 179 164 165 170 161 186 243 197 247 256 286 290 258 239 249 259 273 292 307 320 341 341 342 347 333 325 326 329 330 326 324 326 319 308 286
147 169 198 215 200 200 176 176 177 174 178 187 189 195 240 284 272 284 291 302 308 291 250 262 299 327 349 3 7 359 359 344 334 331 324 318 313 311 322 331 335 332 321
158 174 177 164 180 191 196 187 190 193 186 195 198 197 213 253 276 285 283 335 342 341 32 88 55 33 30 33 19 2 355 337 333 321 315 312 316 325 331 333 332 335 332
149 161 167 167 168 174 216 227 224 223 205 199 199 194 194 223 251 271 289 276 238 188 109 89 38 30 28 14 6 7 359 351 344 333 328 329 332 334 334 336 334 335 331
142 143 159 167 166 164 155 76 25 222 218 213 205 206 215 223 232 253 284 304 271 139 115 103 57 20 8 351 343 345 350 350 341 331 329 330 332 332 332 335 339 333 326
176 189 178 169 168 168 162 148 111 52 65 88 123 143 204 206 218 224 215 32 65 104 103 109 97 348 328 322 325 328 326 327 326 325 326 329 331 330 331 333 336 333 327
184 205 188 166 170 182 178 168 163 152 98 31 32 69 79 146 162 176 169 111 68 52 100 133 183 268 305 313 319 321 320 322 324 324 325 329 330 328 327 328 328 328 326
183 179 169 160 163 169 157 147 147 146 141 109 40 39 52 85 90 95 105 118 139 132 113 162 220 242 271 298 311 311 311 314 321 323 326 330 328 327 325 326 325 329 332
192 191 163 148 145 152 150 147 142 140 143 150 171 261 27 47 63 31 34 97 130 150 179 221 267 255 256 257 285 302 313 317 321 325 326 328 326 326 324 325 328 331 331
177 169 150 125 148 162 154 154 154 154 163 168 243 262 282 86 104 36 21 94 149 173 195 225 252 260 268 281 285 293 304 309 314 320 323 323 324 325 324 325 330 330 330
162 151 144 149 148 151 139 143 139 145 161 161 151 7 49 51 66 45 15 358 173 197 198 205 248 272 264 264 271 282 295 303 309 312 312 311 316 322 326 330 333 332 335
137 139 137 142 146 159 124 117 128 132 128 103 108 68 67 66 24 341 297 264 267 285 215 259 276 290 300 300 284 272 277 285 291 290 297 305 314 319 322 325 328 332 334
142 152 155 153 150 149 146 137 133 131 136 148 152 148 144 170 253 284 289 283 318 303 289 283 268 271 294 313 313 307 300 301 303 296 293 297 307 314 317 321 324 326 328
150 162 167 167 170 166 156 148 152 154 168 186 197 192 171 213 249 283 258 274 281 291 302 306 298 296 297 306 310 310 309 316 318 317 309 298 295 301 308 317 323 324 326
156 165 168 167 173 175 175 183 197 198 203 211 203 204 212 233 239 215 207 214 272 297 304 307 301 305 307 310 309 313 321 326 325 327 327 303 299 306 315 321 324 324 322
Height
1487 1489 1490 1492 1493 1495 1497 1498 1500 1501 1502 1503 1504 1505 1506 1508 1508 1509 1509 1508 1508 1508 1507 1507 1507 1507 1506 1506 1504 1503 1502 1500 1497 1494 1493 1492 1490 1488 1486 1484 1482 1479 1476
1484 1486 1487 1488 1490 1492 1493 1495 1496 1498 1499 1500 1501 1502 1503 1504 1505 1505 1505 1505 1505 1505 1505 1504 1503 1503 1502 1502 1501 1500 1498 1497 1495 1491 1489 1488 1486 1484 1482 1480 1477 1475 1473
1481 1482 1483 1484 1486 1488 1489 1491 1493 1494 1495 1496 1497 1498 1499 1500 1501 1501 1502 1501 1502 1501 1501 1501 1500 1500 1499 1498 1497 1496 1494 1493 1491 1488 1485 1484 1482 1480 1478 1475 1473 1471 1468
1477 1479 1479 1481 1482 1484 1485 1487 1489 1490 1491 1493 1493 1495 1496 1496 1497 1498 1498 1498 1498 1498 1497 1497 1497 1496 1495 1494 1493 1492 1490 1489 1488 1485 1482 1480 1478 1476 1474 1471 1468 1466 1464
1474 1475 1476 1477 1479 1480 1482 1484 1485 1486 1488 1489 1490 1490 1491 1492 1493 1493 1494 1494 1494 1494 1493 1493 1493 1492 1491 1491 1489 1488 1487 1485 1484 1481 1479 1477 1474 1472 1470 1467 1464 1461 1459
1470 1471 1472 1473 1474 1476 1478 1480 1481 1482 1484 1485 1486 1486 1487 1488 1489 1490 1490 1490 1490 1490 1489 1489 1488 1488 1487 1487 1486 1485 1484 1482 1480 1478 1476 1473 1471 1469 1467 1464 1461 1457 1454
1467 1467 1468 1469 1471 1472 1474 1476 1477 1478 1480 1481 1482 1483 1483 1484 1485 1486 1487 1487 1486 1486 1485 1485 1484 1483 1483 1482 1481 1480 1479 1478 1477 1476 1473 1470 1468 1466 1463 1460 1458 1455 1452
1464 1464 1465 1466 1467 1469 1470 1472 1473 1474 1476 1477 1478 1479 1479 1480 1481 1482 1483 1483 1482 1482 1481 1480 1480 1479 1479 1478 1477 1476 1475 1474 1472 1471 1469 1467 1464 1462 1460 1457 1454 1451 1448
1460 1461 1462 1463 1464 1465 1466 1468 1469 1470 1472 1473 1474 1475 1476 1476 1477 1478 1479 1478 1478 1477 1477 1477 1476 1475 1475 1474 1473 1472 1471 1469 1469 1467 1465 1463 1461 1458 1456 1453 1450 1447 1443
1458 1459 1460 1461 1462 1462 1463 1465 1466 1467 1469 1470 1471 1472 1472 1473 1474 1474 1475 1474 1474 1473 1473 1473 1472 1472 1471 1470 1469 1468 1466 1465 1464 1462 1461 1459 1456 1454 1452 1450 1447 1444 1440
1455 1456 1457 1458 1459 1459 1460 1461 1463 1464 1466 1467 1468 1468 1469 1470 1470 1471 1471 1471 1470 1470 1469 1469 1468 1468 1468 1467 1466 1465 1464 1462 1461 1459 1457 1455 1452 1450 1448 1446 1444 1441 1438
1453 1453 1454 1455 1455 1456 1457 1458 1460 1461 1462 1463 1464 1465 1466 1467 1468 1468 1468 1468 1467 1467 1466 1466 1465 1465 1465 1464 1463 1462 1461 1460 1458 1456 1454 1451 1449 1447 1444 1442 1440 1438 1435
1449 1450 1451 1451 1452 1453 1454 1455 1457 1458 1459 1460 1461 1462 1463 1464 1465 1465 1465 1465 1464 1464 1463 1463 1463 1463 1462 1461 1460 1459 1458 1457 1455 1453 1451 1449 1447 1444 1442 1439 1437 1434 1432
1446 1446 1447 1448 1449 1451 1452 1453 1454 1455 1456 1457 1458 1459 1460 1461 1461 1462 1462 1461 1461 1461 1460 1460 1460 1460 1459 1458 1458 1457 1456 1454 1453 1451 1448 1446 1444 1442 1439 1437 1434 1431 1429
1443 1443 1444 1445 1446 1448 1449 1450 1452 1453 1454 1455 1455 1456 1457 1457 1458 1459 1459 1458 1458 1458 1458 1457 1457 1457 1456 1456 1455 1454 1453 1452 1450 1448 1447 1444 1442 1440 1437 1435 1432 1430 1427
1440 1441 1442 1443 1444 1445 1446 1447 1449 1450 1451 1452 1453 1454 1454 1455 1456 1456 1456 1456 1456 1456 1456 1455 1455 1454 1454 1453 1452 1451 1451 1449 1448 1447 1445 1443 1441 1438 1436 1434 1431 1428 1426
1439 1439 1440 1441 1442 1442 1443 1444 1445 1447 1448 1449 1450 1450 1451 1452 1453 1453 1453 1453 1453 1453 1453 1453 1452 1452 1452 1451 1451 1450 1449 1448 1446 1445 1443 1441 1439 1437 1435 1432 1430 1427 1425
1438 1438 1438 1439 1439 1440 1441 1442 1443 1444 1444 1445 1447 1448 1448 1449 1450 1450 1450 1451 1450 1451 1451 1450 1450 1450 1450 1450 1449 1448 1447 1446 1444 1443 1442 1440 1438 1436 1434 1432 1429 1426 1424
1436 1436 1436 1437 1438 1439 1439 1440 1441 1442 1442 1443 1444 1445 1446 1446 1447 1447 1447 1448 1447 1448 1448 1448 1448 1448 1448 1448 1447 1446 1445 1444 1443 1442 1440 1439 1437 1435 1433 1431 1428 1426 1423
1434 1434 1435 1435 1436 1437 1438 1438 1439 1440 1441 1441 1442 1443 1443 1444 1444 1444 1445 1445 1445 1446 1446 1446 1446 1446 1446 1446 1445 1444 1443 1442 1441 1440 1439 1437 1436 1434 1432 1430 1428 1425 1423
1433 1433 1434 1434 1435 1435 1436 1437 1437 1438 1439 1439 1440 1441 1442 1442 1442 1443 1443 1443 1444 1444 1444 1445 1445 1444 1444 1444 1443 1442 1441 1440 1439 1438 1437 1436 1434 1433 1431 1429 1427 1425 1423
1432 1432 1433 1433 1434 1434 1435 1435 1436 1437 1438 1438 1439 1440 1441 1441 1441 1441 1441 1442 1442 1443 1443 1443 1443 1443 1442 1442 1441 1441 1440 1439 1438 1437 1436 1435 1433 1432 1431 1429 1427 1425 1422
1431 1431 1432 1432 1433 1433 1434 1434 1435 1436 1436 1437 1438 1438 1439 1439 1440 1440 1440 1440 1441 1441 1441 1441 1441 1441 1441 1440 1440 1439 1438 1437 1437 1436 1435 1434 1432 1431 1430 1428 1426 1424 1422
1430 1431 1431 1431 1432 1433 1433 1434 1434 1435 1435 1436 1436 1437 1437 1438 1438 1438 1438 1439 1439 1439 1439 1439 1439 1439 1439 1438 1438 1437 1437 1436 1435 1435 1434 1433 1432 1431 1429 1428 1426 1424 1422
1430 1430 1430 1431 1431 1432 1432 1433 1433 1434 1434 1435 1435 1435 1436 1436 1436 1437 1437 1437 1437 1437 1438 1437 1437 1437 1437 1437 1436 1436 1435 1435 1434 1434 1433 1432 1431 1430 1429 1427 1426 1424 1422
1429 1429 1429 1430 1430 1431 1431 1432 1432 1433 1433 1433 1434 1434 1434 1435 1435 1435 1436 1436 1436 1436 1436 1436 1436 1436 1436 1435 1435 1435 1434 1434 1433 1433 1432 1431 1430 1429 1428 1427 1425 1424 1422